Home   Weather   Libreville   Past weeks
Flag for Gabon

Past Weather in Libreville, Gabon — Yesterday and Last 2 Weeks

Now
75 °F

Passing clouds.


Feels Like: 73 °F
Forecast: 88 / 78 °F
Wind: 8 mph from East

Location: Libreville Airport

Current Time: Jan 18, 2019 at 6:53:59 am

Latest Report: Jan 18, 2019 at 6:00 am


Visibility: N/A

Pressure: 29.86 "Hg

Humidity: 100%

Dew Point: 75 °F

Location of LibrevilleLocation

Past Weather in Libreville — Graph

°F

Libreville Temperature Yesterday

Maximum temperature yesterday: 86 °F (at 12:00 pm)
Minimum temperature yesterday: 75 °F (at 11:00 pm)
Average temperature yesterday: 82 °F

High & Low Weather Summary for the Past Weeks

 TemperatureHumidityPressure
High88 °F (Jan 16, 1:00 pm)100% (Jan 3, 7:00 am)29.98 "Hg (Jan 3, 7:00 am)
Low75 °F (Jan 4, 7:00 am)66% (Jan 7, 8:00 pm)29.74 "Hg (Jan 16, 4:00 pm)
Average82 °F84%29.85 "Hg
* Reported Jan 3 5:00 am — Jan 18 5:30 am, Libreville. Weather by CustomWeather, © 2019

Note: Actual official high and low records may vary slightly from our data, if they occured in-between our weather recording intervals... More about our weather records

Advertising

Libreville Weather History for the Previous 24 Hours

Scroll right to see more
 ConditionsComfort  
Time TempWeatherWind HumidityBarometerVisibility
5:30 am
Fri, Jan 18
77 °FPassing clouds.7 mph94%29.86 "HgN/A
5:00 am75 °FPassing clouds.7 mph100%29.86 "HgN/A
4:00 am75 °FPassing clouds.7 mph100%29.86 "HgN/A
3:30 am75 °FPassing clouds.7 mph94%29.83 "HgN/A
3:00 am75 °FPassing clouds.2 mph100%29.83 "HgN/A
2:00 am77 °FPassing clouds.2 mph94%29.83 "HgN/A
1:30 am77 °FPassing clouds.2 mph94%29.83 "HgN/A
1:00 am77 °FPassing clouds.2 mph94%29.86 "HgN/A
12:30 am75 °FPassing clouds.3 mph94%29.92 "Hg5 mi
12:00 am75 °FThunderstorms. Passing clouds.3 mph94%29.92 "Hg5 mi
11:30 pm
Thu, Jan 17
75 °FThunderstorms. Passing clouds.8 mph94%29.92 "Hg5 mi
11:00 pm75 °FThunderstorms. Passing clouds.12 mph100%29.92 "Hg4 mi
10:30 pm79 °FThunderstorms. Passing clouds.10 mph94%29.92 "Hg4 mi
10:00 pm79 °FThunderstorms. Passing clouds.8 mph94%29.92 "Hg5 mi
9:30 pm81 °FPartly cloudy.8 mph89%29.92 "HgN/A
9:00 pm81 °FLight rain. Partly cloudy.10 mph89%29.89 "Hg6 mi
8:30 pm82 °FPartly cloudy.10 mph84%29.86 "HgN/A
8:00 pm82 °FLight rain. Passing clouds.10 mph84%29.86 "Hg6 mi
7:30 pm82 °FPassing clouds.12 mph84%29.83 "Hg6 mi
7:00 pm82 °FPassing clouds.8 mph84%29.83 "Hg6 mi
6:30 pm82 °FScattered clouds.7 mph79%29.80 "HgN/A
6:00 pm84 °FPassing clouds.7 mph74%29.80 "HgN/A
5:30 pm84 °FPassing clouds.9 mph74%29.77 "HgN/A
5:00 pm84 °FPassing clouds.9 mph79%29.77 "HgN/A
4:30 pm84 °FPassing clouds.9 mph79%29.77 "HgN/A
4:00 pm86 °FPassing clouds.9 mph70%29.77 "HgN/A
3:30 pm86 °FPassing clouds.7 mph70%29.77 "HgN/A
3:00 pm86 °FPassing clouds.8 mph70%29.77 "HgN/A
2:30 pm86 °FPassing clouds.8 mph75%29.80 "HgN/A
2:00 pm84 °FPassing clouds.7 mph79%29.80 "HgN/A
1:30 pm84 °FPassing clouds.7 mph79%29.83 "HgN/A
1:00 pm86 °FScattered clouds.8 mph75%29.86 "HgN/A
12:30 pm86 °FScattered clouds.8 mph75%29.86 "HgN/A
12:00 pm86 °FScattered clouds.7 mph79%29.89 "HgN/A
11:30 am84 °FScattered clouds.7 mph79%29.89 "HgN/A
11:00 am82 °FScattered clouds.9 mph84%29.89 "HgN/A
10:30 am84 °FPassing clouds.9 mph74%29.89 "Hg6 mi
10:00 am84 °FPassing clouds.6 mph74%29.92 "Hg6 mi
9:30 am82 °FPassing clouds.7 mph79%29.92 "Hg6 mi
9:00 am82 °FThunderstorms. Passing clouds.8 mph84%29.92 "Hg6 mi
8:30 am81 °FThunderstorms. Passing clouds.6 mph84%29.89 "Hg6 mi
8:00 am79 °FThunderstorms. Scattered clouds.6 mph94%29.89 "Hg6 mi
7:30 am79 °FThunderstorms. Scattered clouds.6 mph94%29.86 "Hg6 mi
7:00 am77 °FThunderstorms. Broken clouds.2 mph94%29.86 "Hg6 mi
6:30 am77 °FThunderstorms. Broken clouds.6 mph94%29.86 "Hg5 mi
6:00 am77 °FThunderstorms. Partly cloudy.2 mph94%29.86 "Hg4 mi
Weather by CustomWeather, © 2019

See weather overview